Location: Pine Ridge Estates
(42.5164°N, 73.8156°W)
Time: 11:19:29
(UTC+00:00)

ISS - Pass Details

Date: 18 October 2024
Orbit: 407 x 418 km, 51.6° (Epoch: 13 November)

Event Time Altitude Azimuth Distance (km) Brightness Sun altitude
Exits shadow 09:01:58 13° 146° (SE) 1,319 -1.0 -24.7°
Maximum altitude 09:02:44 13° 131° (SE) 1,278 -0.9 -24.6°
Drops below altitude 10° 09:04:24 10° 100° (E) 1,465 -0.1 -24.3°
Sets 09:07:17 0° 72° (ENE) 2,330 1.4 -23.7°
